Location: Longueuil
(45.5369°N, 73.5107°W)
Time: 04:27:05
(UTC-05:00)

Tiangong - Visible Passes

Search period start: 28 February 2024 00:00
Search period end: 09 March 2024 00:00
Orbit: 375 x 385 km, 41.5° (Epoch: 27 February)

Date Brightness Start Highest point End Pass type
(mag) Time Alt. Az. Time Alt. Az. Time Alt. Az.
28 Feb 0.0 19:24:16 10° SSW 19:25:37 18° S 19:25:37 18° S visible
29 Feb 0.0 18:23:54 10° S 18:25:43 15° SSE 18:27:33 10° ESE visible
29 Feb 0.7 19:59:05 10° WSW 19:59:41 14° SW 19:59:41 14° SW visible
01 Mar -0.9 18:58:06 10° SW 19:00:48 27° SSE 19:01:29 25° SE visible
02 Mar -0.9 19:33:01 10° WSW 19:35:17 33° SSW 19:35:17 33° SSW visible
03 Mar -1.1 18:31:47 10° WSW 18:34:38 33° S 18:36:53 14° ESE visible
03 Mar 0.6 20:08:09 10° WSW 20:08:59 16° WSW 20:08:59 16° WSW visible
04 Mar -1.3 19:06:44 10° WSW 19:09:40 38° S 19:10:29 31° SE visible
05 Mar -0.5 19:41:50 10° WSW 19:44:01 27° SW 19:44:01 27° SW visible
06 Mar -1.1 18:40:13 10° WSW 18:43:06 35° S 18:45:24 14° ESE visible
06 Mar 1.0 20:17:14 10° WSW 20:17:29 11° WSW 20:17:29 11° WSW visible
07 Mar -0.4 19:15:17 10° WSW 19:17:50 23° SSW 19:18:51 20° SSE visible
08 Mar 0.6 19:51:10 10° SW 19:52:16 12° SSW 19:52:16 12° SSW visible
